AAL1260 KMIA-MBPV

Flight info

Callsign AAL1260
Flight time 1h 11m
Altitude 37000
Route KLADA2 BITAC DCT SOLEI
Aircraft A321/M-SDE3FGHIRWY/LB1

Departure

Time 2026-05-04 17:55
Airport Miami International Airport (KMIA)

Arrival

Time 2026-05-04 19:06
Airport Providenciales International Airport (MBPV)
Time Latitude Longitude Altitude Speed Heading
2026-05-04 17:33 25.79737 -80.28307 15 ft 0 kts 360°
2026-05-04 17:45 25.79735 -80.28307 15 ft 1 kts 360°
2026-05-04 17:45 25.79719 -80.28307 17 ft 3 kts 358°
2026-05-04 17:46 25.79702 -80.28306 16 ft 3 kts 356°
2026-05-04 17:46 25.79685 -80.28302 17 ft 3 kts 316°
2026-05-04 17:46 25.79676 -80.28286 19 ft 3 kts 274°
2026-05-04 17:46 25.79676 -80.28269 20 ft 1 kts 268°
2026-05-04 17:47 25.79676 -80.28264 19 ft 0 kts 268°
2026-05-04 17:49 25.79676 -80.28265 19 ft 2 kts 268°
2026-05-04 17:49 25.79673 -80.28347 15 ft 19 kts 268°
2026-05-04 17:49 25.79664 -80.28502 15 ft 20 kts 263°
2026-05-04 17:49 25.79653 -80.28644 15 ft 17 kts 268°
2026-05-04 17:50 25.79645 -80.28743 16 ft 7 kts 264°
2026-05-04 17:50 25.79644 -80.28759 15 ft 1 kts 266°
2026-05-04 17:50 25.79680 -80.28810 15 ft 16 kts 341°
2026-05-04 17:50 25.79783 -80.28820 15 ft 15 kts
2026-05-04 17:51 25.79889 -80.28825 15 ft 15 kts 353°
2026-05-04 17:51 25.79981 -80.28821 16 ft 13 kts 20°
2026-05-04 17:51 25.80017 -80.28746 17 ft 11 kts 86°
2026-05-04 17:51 25.80015 -80.28668 16 ft 6 kts 89°
2026-05-04 17:52 25.80020 -80.28640 16 ft 5 kts 105°
2026-05-04 17:52 25.80017 -80.28694 16 ft 14 kts 283°
2026-05-04 17:52 25.80018 -80.28812 17 ft 16 kts 267°
2026-05-04 17:52 25.80011 -80.28962 16 ft 26 kts 267°
2026-05-04 17:53 25.80002 -80.29187 16 ft 30 kts 267°
2026-05-04 17:53 25.79994 -80.29413 15 ft 30 kts 268°
2026-05-04 17:53 25.79983 -80.29648 14 ft 31 kts 267°
2026-05-04 17:53 25.79977 -80.29876 14 ft 25 kts 273°
2026-05-04 17:54 25.79997 -80.30037 13 ft 19 kts 284°
2026-05-04 17:54 25.80059 -80.30116 14 ft 9 kts 17°
2026-05-04 17:54 25.80077 -80.30062 13 ft 8 kts 83°
2026-05-04 17:54 25.80082 -80.29841 13 ft 69 kts 88°
2026-05-04 17:55 25.80119 -80.29001 18 ft 145 kts 87°
2026-05-04 17:55 25.80172 -80.27733 525 ft 169 kts 85°
2026-05-04 17:55 25.80189 -80.26442 1575 ft 169 kts 96°
2026-05-04 17:55 25.79764 -80.25150 2316 ft 196 kts 110°
2026-05-04 17:56 25.79141 -80.23685 2728 ft 213 kts 111°
2026-05-04 17:56 25.78483 -80.22232 3454 ft 213 kts 114°
2026-05-04 17:56 25.77764 -80.20706 3789 ft 235 kts 115°
2026-05-04 17:56 25.77020 -80.19003 4155 ft 255 kts 113°
2026-05-04 17:57 25.76233 -80.17170 4630 ft 271 kts 114°
2026-05-04 17:57 25.75383 -80.15258 5216 ft 280 kts 118°
2026-05-04 17:57 25.74414 -80.13355 5845 ft 289 kts 119°
2026-05-04 17:57 25.73445 -80.11363 6484 ft 295 kts 115°
2026-05-04 17:58 25.72724 -80.09224 7226 ft 297 kts 110°
2026-05-04 17:58 25.72032 -80.07038 7880 ft 303 kts 110°
2026-05-04 17:58 25.71325 -80.04858 8560 ft 307 kts 111°
2026-05-04 17:58 25.70587 -80.02619 9217 ft 312 kts 111°
2026-05-04 17:59 25.69826 -80.00336 9870 ft 318 kts 112°
2026-05-04 17:59 25.69049 -79.98006 10263 ft 332 kts 112°
2026-05-04 17:59 25.67338 -79.92885 10687 ft 372 kts 112°
2026-05-04 18:00 25.66435 -79.90165 11280 ft 379 kts 112°
2026-05-04 18:00 25.65521 -79.87409 11886 ft 383 kts 112°
2026-05-04 18:00 25.64600 -79.84627 12487 ft 387 kts 112°
2026-05-04 18:00 25.63675 -79.81815 12856 ft 389 kts 112°
2026-05-04 18:01 25.62730 -79.78978 13364 ft 394 kts 113°
2026-05-04 18:01 25.61769 -79.76115 13924 ft 398 kts 113°
2026-05-04 18:01 25.60799 -79.73225 14450 ft 402 kts 113°
2026-05-04 18:02 25.58815 -79.67373 15543 ft 408 kts 114°
2026-05-04 18:02 25.57764 -79.64443 16074 ft 411 kts 115°
2026-05-04 18:02 25.56679 -79.61502 16614 ft 414 kts 116°
2026-05-04 18:02 25.55575 -79.58541 17135 ft 417 kts 116°
2026-05-04 18:03 25.54467 -79.55562 17667 ft 420 kts 116°
2026-05-04 18:03 25.53354 -79.52556 18187 ft 423 kts 115°
2026-05-04 18:03 25.52239 -79.49528 18649 ft 426 kts 115°
2026-05-04 18:03 25.51119 -79.46479 19095 ft 429 kts 115°
2026-05-04 18:04 25.49991 -79.43404 19545 ft 432 kts 115°
2026-05-04 18:04 25.48856 -79.40314 19985 ft 435 kts 115°
2026-05-04 18:04 25.46570 -79.34077 20886 ft 441 kts 115°
2026-05-04 18:05 25.45412 -79.30920 21335 ft 444 kts 115°
2026-05-04 18:05 25.44259 -79.27790 21763 ft 446 kts 115°
2026-05-04 18:05 25.43081 -79.24595 22199 ft 449 kts 115°
2026-05-04 18:05 25.41897 -79.21385 22616 ft 452 kts 115°
2026-05-04 18:06 25.39508 -79.14907 23423 ft 457 kts 115°
2026-05-04 18:06 25.38693 -79.12703 23674 ft 459 kts 115°
2026-05-04 18:06 25.37481 -79.09424 23997 ft 462 kts 115°
2026-05-04 18:07 25.36261 -79.06128 24322 ft 465 kts 115°
2026-05-04 18:07 25.35048 -79.02858 24639 ft 467 kts 115°
2026-05-04 18:07 25.33809 -78.99526 24969 ft 470 kts 115°
2026-05-04 18:07 25.32563 -78.96174 25278 ft 473 kts 115°
2026-05-04 18:08 25.31316 -78.92811 25593 ft 476 kts 115°
2026-05-04 18:08 25.30058 -78.89417 25906 ft 478 kts 115°
2026-05-04 18:08 25.28793 -78.86008 26220 ft 481 kts 115°
2026-05-04 18:08 25.27518 -78.82573 26531 ft 484 kts 115°
2026-05-04 18:09 25.24942 -78.75667 27153 ft 489 kts 115°
2026-05-04 18:09 25.22328 -78.68686 27770 ft 494 kts 115°
2026-05-04 18:10 25.21010 -78.65166 28070 ft 497 kts 115°
2026-05-04 18:10 25.19689 -78.61635 28362 ft 499 kts 115°
2026-05-04 18:10 25.18364 -78.58085 28680 ft 501 kts 115°
2026-05-04 18:10 25.17012 -78.54537 28978 ft 503 kts 116°
2026-05-04 18:11 25.15598 -78.50999 29264 ft 505 kts 117°
2026-05-04 18:11 25.14137 -78.47465 29548 ft 507 kts 118°
2026-05-04 18:11 25.12651 -78.43927 29836 ft 509 kts 118°
2026-05-04 18:11 25.11177 -78.40429 30106 ft 512 kts 118°
2026-05-04 18:12 25.09677 -78.36850 30353 ft 514 kts 118°
2026-05-04 18:12 25.08186 -78.33255 30612 ft 516 kts 117°
2026-05-04 18:12 25.06708 -78.29659 30917 ft 516 kts 117°
2026-05-04 18:12 25.05233 -78.26050 31292 ft 515 kts 117°
2026-05-04 18:13 25.03763 -78.22462 31661 ft 513 kts 118°
2026-05-04 18:13 25.02293 -78.18882 32024 ft 512 kts 118°
2026-05-04 18:13 24.99349 -78.11744 32739 ft 510 kts 118°
2026-05-04 18:14 24.97880 -78.08189 33089 ft 509 kts 118°
2026-05-04 18:14 24.96415 -78.04648 33438 ft 508 kts 119°
2026-05-04 18:14 24.94951 -78.01107 33791 ft 507 kts 119°
2026-05-04 18:15 24.92025 -77.94050 34375 ft 506 kts 119°
2026-05-04 18:15 24.89090 -77.86993 34856 ft 507 kts 120°
2026-05-04 18:15 24.87617 -77.83461 35095 ft 508 kts 120°
2026-05-04 18:16 24.86140 -77.79922 35366 ft 509 kts 120°
2026-05-04 18:16 24.84661 -77.76378 35596 ft 509 kts 120°
2026-05-04 18:16 24.83181 -77.72834 35824 ft 510 kts 120°
2026-05-04 18:17 24.80214 -77.65729 36249 ft 511 kts 120°
2026-05-04 18:17 24.78729 -77.62168 36443 ft 512 kts 120°
2026-05-04 18:17 24.75757 -77.55077 36865 ft 512 kts 123°
2026-05-04 18:18 24.73981 -77.51717 36999 ft 504 kts 131°
2026-05-04 18:18 24.70056 -77.45383 37027 ft 500 kts 131°
2026-05-04 18:19 24.64160 -77.35939 37024 ft 499 kts 131°
2026-05-04 18:19 24.60247 -77.29647 37021 ft 499 kts 131°
2026-05-04 18:20 24.56330 -77.23348 37022 ft 499 kts 131°
2026-05-04 18:20 24.52412 -77.17058 37015 ft 499 kts 131°
2026-05-04 18:21 24.48482 -77.10768 37024 ft 499 kts 131°
2026-05-04 18:21 24.44543 -77.04484 37004 ft 500 kts 131°
2026-05-04 18:22 24.40636 -76.98237 37016 ft 500 kts 131°
2026-05-04 18:22 24.36689 -76.91934 37034 ft 500 kts 131°
2026-05-04 18:23 24.32744 -76.85650 37027 ft 500 kts 131°
2026-05-04 18:23 24.28792 -76.79369 37029 ft 500 kts 131°
2026-05-04 18:24 24.24835 -76.73088 37038 ft 500 kts 131°
2026-05-04 18:24 24.20880 -76.66811 37037 ft 501 kts 131°
2026-05-04 18:25 24.16924 -76.60533 37040 ft 501 kts 131°
2026-05-04 18:25 24.12993 -76.54292 37045 ft 501 kts 131°
2026-05-04 18:26 24.09025 -76.48010 37034 ft 501 kts 131°
2026-05-04 18:26 24.05045 -76.41734 37035 ft 501 kts 131°
2026-05-04 18:27 24.01066 -76.35469 37035 ft 501 kts 131°
2026-05-04 18:27 23.97099 -76.29206 37033 ft 501 kts 131°
2026-05-04 18:28 23.93119 -76.22939 37047 ft 501 kts 131°
2026-05-04 18:28 23.89131 -76.16685 37039 ft 501 kts 131°
2026-05-04 18:29 23.85139 -76.10426 37035 ft 502 kts 131°
2026-05-04 18:29 23.81149 -76.04165 37033 ft 503 kts 131°
2026-05-04 18:30 23.75182 -75.94810 37029 ft 503 kts 131°
2026-05-04 18:31 23.71169 -75.88536 37020 ft 504 kts 131°
2026-05-04 18:31 23.67153 -75.82273 37029 ft 504 kts 131°
2026-05-04 18:32 23.63123 -75.76013 37026 ft 504 kts 131°
2026-05-04 18:32 23.59095 -75.69744 37034 ft 505 kts 131°
2026-05-04 18:33 23.55064 -75.63467 37040 ft 505 kts 131°
2026-05-04 18:33 23.51032 -75.57187 37044 ft 505 kts 131°
2026-05-04 18:34 23.46988 -75.50922 37042 ft 505 kts 131°
2026-05-04 18:34 23.42937 -75.44661 37046 ft 505 kts 131°
2026-05-04 18:35 23.38895 -75.38396 37042 ft 505 kts 131°
2026-05-04 18:35 23.34855 -75.32148 37028 ft 504 kts 131°
2026-05-04 18:36 23.30808 -75.25915 37039 ft 504 kts 131°
2026-05-04 18:36 23.26769 -75.19690 37042 ft 503 kts 131°
2026-05-04 18:37 23.22734 -75.13476 37040 ft 503 kts 131°
2026-05-04 18:37 23.18701 -75.07266 37042 ft 503 kts 131°
2026-05-04 18:38 23.14664 -75.01062 37036 ft 502 kts 131°
2026-05-04 18:38 23.10654 -74.94916 37039 ft 502 kts 131°
2026-05-04 18:39 23.06610 -74.88721 37040 ft 502 kts 131°
2026-05-04 18:39 23.02566 -74.82527 37041 ft 502 kts 131°
2026-05-04 18:40 22.98518 -74.76336 37017 ft 502 kts 131°
2026-05-04 18:40 22.94469 -74.70160 37032 ft 502 kts 131°
2026-05-04 18:41 22.90414 -74.63977 37038 ft 503 kts 131°
2026-05-04 18:41 22.86353 -74.57806 37042 ft 503 kts 131°
2026-05-04 18:42 22.82294 -74.51626 37044 ft 503 kts 131°
2026-05-04 18:42 22.78236 -74.45446 37044 ft 502 kts 131°
2026-05-04 18:43 22.74210 -74.39321 37045 ft 502 kts 131°
2026-05-04 18:43 22.70139 -74.33158 37038 ft 502 kts 131°
2026-05-04 18:44 22.66076 -74.27017 37031 ft 502 kts 131°
2026-05-04 18:44 22.62006 -74.20855 37000 ft 504 kts 131°
2026-05-04 18:45 22.57921 -74.14681 37017 ft 505 kts 131°
2026-05-04 18:45 22.53825 -74.08505 37029 ft 505 kts 131°
2026-05-04 18:46 22.49721 -74.02323 37036 ft 506 kts 131°
2026-05-04 18:46 22.45621 -73.96144 36961 ft 505 kts 131°
2026-05-04 18:46 22.43557 -73.93047 36183 ft 510 kts 131°
2026-05-04 18:47 22.41476 -73.89926 35395 ft 513 kts 131°
2026-05-04 18:47 22.39390 -73.86790 34701 ft 513 kts 131°
2026-05-04 18:47 22.37310 -73.83659 34049 ft 512 kts 131°
2026-05-04 18:47 22.35230 -73.80530 33388 ft 510 kts 131°
2026-05-04 18:48 22.33170 -73.77433 32757 ft 506 kts 131°
2026-05-04 18:48 22.31117 -73.74354 32159 ft 503 kts 131°
2026-05-04 18:48 22.29079 -73.71302 31629 ft 499 kts 131°
2026-05-04 18:48 22.27054 -73.68271 31129 ft 495 kts 131°
2026-05-04 18:49 22.25078 -73.65310 30668 ft 490 kts 130°
2026-05-04 18:49 22.23101 -73.62347 30376 ft 481 kts 130°
2026-05-04 18:49 22.21171 -73.59455 30031 ft 473 kts 130°
2026-05-04 18:49 22.19215 -73.56538 29256 ft 473 kts 130°
2026-05-04 18:50 22.17286 -73.53670 28610 ft 471 kts 130°
2026-05-04 18:50 22.15395 -73.50857 28018 ft 468 kts 130°
2026-05-04 18:50 22.13491 -73.48023 27454 ft 465 kts 129°
2026-05-04 18:50 22.11603 -73.45211 26890 ft 462 kts 129°
2026-05-04 18:51 22.09725 -73.42412 26332 ft 459 kts 129°
2026-05-04 18:51 22.07860 -73.39634 25807 ft 456 kts 129°
2026-05-04 18:51 22.06007 -73.36875 25259 ft 453 kts 128°
2026-05-04 18:51 22.04168 -73.34139 24742 ft 450 kts 128°
2026-05-04 18:52 22.02335 -73.31415 24239 ft 448 kts 128°
2026-05-04 18:52 22.00512 -73.28708 23762 ft 444 kts 128°
2026-05-04 18:52 21.99290 -73.26891 23444 ft 442 kts 128°
2026-05-04 18:52 21.97490 -73.24216 22924 ft 438 kts 128°
2026-05-04 18:53 21.95709 -73.21569 22449 ft 435 kts 128°
2026-05-04 18:53 21.93942 -73.18947 21998 ft 428 kts 128°
2026-05-04 18:53 21.92265 -73.16458 21844 ft 403 kts 128°
2026-05-04 18:53 21.90658 -73.14072 21499 ft 386 kts 128°
2026-05-04 18:54 21.89097 -73.11767 20900 ft 377 kts 128°
2026-05-04 18:54 21.87565 -73.09508 20279 ft 370 kts 128°
2026-05-04 18:54 21.86057 -73.07283 19628 ft 365 kts 128°
2026-05-04 18:54 21.84569 -73.05087 18982 ft 361 kts 128°
2026-05-04 18:55 21.83102 -73.02916 18358 ft 356 kts 128°
2026-05-04 18:55 21.80207 -72.98634 16616 ft 356 kts 128°
2026-05-04 18:55 21.78746 -72.96481 15800 ft 355 kts 128°
2026-05-04 18:56 21.77300 -72.94346 15066 ft 351 kts 128°
2026-05-04 18:56 21.75878 -72.92237 14365 ft 346 kts 128°
2026-05-04 18:56 21.74476 -72.90151 13663 ft 342 kts 128°
2026-05-04 18:56 21.73091 -72.88089 12913 ft 338 kts 128°
2026-05-04 18:57 21.71721 -72.86054 12179 ft 334 kts 128°
2026-05-04 18:57 21.70364 -72.84048 11470 ft 330 kts 128°
2026-05-04 18:57 21.69018 -72.82067 10773 ft 326 kts 128°
2026-05-04 18:57 21.67707 -72.80146 10269 ft 316 kts 128°
2026-05-04 18:58 21.66437 -72.78290 9914 ft 303 kts 128°
2026-05-04 18:58 21.65197 -72.76482 9336 ft 298 kts 128°
2026-05-04 18:58 21.63971 -72.74701 8732 ft 294 kts 128°
2026-05-04 18:58 21.62756 -72.72944 8137 ft 291 kts 128°
2026-05-04 18:59 21.61552 -72.71212 7549 ft 288 kts 128°
2026-05-04 18:59 21.60545 -72.69382 7119 ft 283 kts 109°
2026-05-04 18:59 21.60222 -72.67290 7000 ft 287 kts 87°
2026-05-04 18:59 21.60680 -72.65208 6983 ft 290 kts 64°
2026-05-04 19:00 21.61870 -72.63477 6865 ft 288 kts 43°
2026-05-04 19:00 21.63315 -72.61981 6745 ft 288 kts 43°
2026-05-04 19:00 21.64757 -72.60486 6540 ft 288 kts 43°
2026-05-04 19:00 21.66193 -72.58990 6208 ft 286 kts 44°
2026-05-04 19:01 21.67618 -72.57500 5861 ft 285 kts 44°
2026-05-04 19:01 21.69034 -72.56015 5511 ft 284 kts 44°
2026-05-04 19:01 21.70441 -72.54540 5178 ft 282 kts 45°
2026-05-04 19:01 21.71848 -72.53066 4839 ft 282 kts 45°
2026-05-04 19:02 21.73250 -72.51597 4480 ft 281 kts 45°
2026-05-04 19:02 21.74642 -72.50140 4130 ft 275 kts 45°
2026-05-04 19:02 21.75983 -72.48737 3814 ft 263 kts 46°
2026-05-04 19:02 21.77263 -72.47388 3500 ft 251 kts 49°
2026-05-04 19:03 21.78113 -72.45842 3204 ft 235 kts 77°
2026-05-04 19:03 21.78222 -72.44131 2920 ft 226 kts 96°
2026-05-04 19:03 21.78133 -72.42489 2634 ft 220 kts 95°
2026-05-04 19:03 21.78052 -72.40862 2341 ft 218 kts 95°
2026-05-04 19:04 21.77966 -72.39173 2042 ft 229 kts 96°
2026-05-04 19:04 21.77880 -72.37450 1735 ft 230 kts 94°
2026-05-04 19:04 21.77799 -72.35776 1435 ft 215 kts 96°
2026-05-04 19:04 21.77730 -72.34253 1191 ft 194 kts 96°
2026-05-04 19:05 21.77665 -72.32845 919 ft 179 kts 96°
2026-05-04 19:05 21.77632 -72.31542 676 ft 171 kts 95°
2026-05-04 19:05 21.77603 -72.30286 471 ft 165 kts 97°
2026-05-04 19:05 21.77528 -72.29089 299 ft 153 kts 99°
2026-05-04 19:06 21.77431 -72.27986 98 ft 142 kts 92°
2026-05-04 19:06 21.77378 -72.27017 30 ft 115 kts 92°
2026-05-04 19:06 21.77344 -72.26284 23 ft 83 kts 93°
2026-05-04 19:06 21.77320 -72.25803 19 ft 47 kts 94°
2026-05-04 19:07 21.77323 -72.25597 17 ft 14 kts 59°
2026-05-04 19:07 21.77315 -72.25539 18 ft 9 kts 188°
2026-05-04 19:07 21.77304 -72.25614 20 ft 14 kts 277°
2026-05-04 19:07 21.77319 -72.25742 18 ft 20 kts 276°
2026-05-04 19:08 21.77329 -72.25910 21 ft 25 kts 272°
2026-05-04 19:08 21.77334 -72.26118 21 ft 30 kts 273°
2026-05-04 19:08 21.77349 -72.26331 23 ft 28 kts 272°
2026-05-04 19:08 21.77357 -72.26538 25 ft 28 kts 273°
2026-05-04 19:09 21.77367 -72.26752 26 ft 29 kts 273°
2026-05-04 19:09 21.77379 -72.26963 28 ft 23 kts 275°
2026-05-04 19:09 21.77407 -72.27063 29 ft 11 kts 326°
2026-05-04 19:09 21.77482 -72.27074 29 ft 9 kts 354°
2026-05-04 19:10 21.77523 -72.27102 29 ft 5 kts 287°
2026-05-04 19:10 21.77519 -72.27134 29 ft 5 kts 252°
2026-05-04 19:10 21.77512 -72.27199 30 ft 14 kts 271°
2026-05-04 19:10 21.77540 -72.27252 30 ft 4 kts 356°
2026-05-04 19:11 21.77566 -72.27242 30 ft 3 kts 28°
2026-05-04 19:11 21.77581 -72.27232 30 ft 0 kts 32°